Date String (YYYY-MM-DD hh:mm:ss) UTC,Instrument flags,absolute air pressure of the measurement (hPa),sample flow rate (lpm),inlet stack bypass flow (lpm),air temperature of the measurement (°C),ambient temperature measured by the external sensor (°C),aerosol sample conditioner tube jacket temperature (°C),OPC LED temperature (°C),internal box temperature (°C),relative humidity of the measurement (%),span deviation,mass concentration of particles derived from Lorenz-Mie calculation of OPC scattering (μg/m³),mass concentration of particles derived from Lorenz-Mie calculation of OPC scattering (μg/m³),mass concentration of particles derived from Lorenz-Mie calculation of OPC scattering (μg/m³)
DateTimeUTC,F1_M11,P_M11,Q1_M11,Q2_M11,T1_M11,T2_M11,T3_M11,T4_M11,T5_M11,U1_M11,ZSPAN_M11,X2_M11,X0_M11,X1_M11
2023-07-17 22:00:00,SystemResetWarning,0831.4,5.02,000.00,028.5,025.0,000.0,036.7,030.0,22.8,0000.0,0005.87,0019.60,0004.69
2023-07-17 22:01:00,SystemResetWarning,0831.4,5.00,000.00,028.5,025.4,000.0,036.7,029.9,23.8,0000.0,0006.00,0019.97,0004.68
2023-07-17 22:02:00,SystemResetWarning,0831.5,5.00,000.00,028.5,025.8,000.0,036.7,030.0,23.0,0000.0,0006.06,0019.65,0004.67
2023-07-17 22:03:00,SystemResetWarning,0831.5,5.01,000.00,028.5,026.3,000.0,036.8,030.1,22.5,0000.0,0006.09,0021.35,0004.66
2023-07-17 22:04:00,SystemResetWarning,0831.5,5.00,000.00,028.5,026.7,000.0,036.8,030.2,22.0,0000.0,0006.11,0021.57,0004.65
2023-07-17 22:05:00,SystemResetWarning,0831.5,5.00,000.00,028.6,027.0,000.0,036.8,030.3,21.9,0000.0,0006.08,0020.74,0004.63
2023-07-17 22:06:00,SystemResetWarning,0831.5,5.00,000.00,028.6,027.3,000.0,036.8,030.4,21.8,0000.0,0006.06,0021.46,0004.62
2023-07-17 22:07:00,SystemResetWarning,0831.5,4.98,000.00,028.6,026.4,000.0,036.8,030.2,21.2,0000.0,0006.06,0021.03,0004.61
2023-07-17 22:08:00,SystemResetWarning,0831.4,5.01,000.00,028.6,025.0,000.0,036.7,030.0,21.2,0000.0,0005.93,0020.24,0004.60
2023-07-17 22:09:00,SystemResetWarning,0831.4,5.01,000.00,028.5,025.1,000.0,036.7,030.0,21.5,0000.0,0005.87,0018.84,0004.57
2023-07-17 22:10:00,SystemResetWarning,0831.4,5.00,000.00,028.5,025.4,000.0,036.7,029.9,21.4,0000.0,0005.80,0017.61,0004.57
2023-07-17 22:11:00,SystemResetWarning,0831.4,5.00,000.00,028.5,025.8,000.0,036.7,030.0,21.3,0000.0,0005.78,0017.32,0004.58
2023-07-17 22:12:00,SystemResetWarning,0831.3,4.99,000.00,028.5,026.3,000.0,036.8,030.1,18.1,0000.0,0005.69,0017.00,0004.60
2023-07-17 22:13:00,SystemResetWarning,0831.2,5.00,000.00,028.5,026.7,000.0,036.8,030.2,18.2,0000.0,0005.61,0018.08,0004.61
2023-07-17 22:14:00,SystemResetWarning,0831.1,5.00,000.00,028.6,027.1,000.0,036.8,030.3,18.4,0000.0,0005.62,0016.84,0004.63
2023-07-17 22:15:00,SystemResetWarning,0831.0,5.00,000.00,028.6,027.0,000.0,036.8,030.4,17.6,0000.0,0005.63,0016.16,0004.66
2023-07-17 22:16:00,SystemResetWarning,0830.8,4.98,000.00,028.6,025.4,000.0,036.7,030.1,18.4,0000.0,0005.60,0015.80,0004.69
2023-07-17 22:17:00,SystemResetWarning,0830.8,5.01,000.00,028.5,024.8,000.0,036.7,030.0,19.3,0000.0,0005.61,0015.13,0004.72
2023-07-17 22:18:00,SystemResetWarning,0830.9,5.01,000.00,028.5,025.1,000.0,036.7,029.9,18.2,0000.0,0005.59,0014.97,0004.73
2023-07-17 22:19:00,SystemResetWarning,0830.8,5.00,000.00,028.4,025.5,000.0,036.7,029.9,14.4,0000.0,0005.65,0015.35,0004.75
2023-07-17 22:20:00,SystemResetWarning,0830.8,5.00,000.00,028.5,026.0,000.0,036.8,030.0,14.2,0000.0,0005.63,0015.14,0004.77
2023-07-17 22:21:00,SystemResetWarning,0830.7,5.00,000.00,028.5,026.5,000.0,036.8,030.1,13.9,0000.0,0005.57,0015.52,0004.78
2023-07-17 22:22:00,SystemResetWarning,0830.7,5.00,000.00,028.6,026.9,000.0,036.8,030.2,13.8,0000.0,0005.49,0016.16,0004.81
2023-07-17 22:23:00,SystemResetWarning,0830.7,5.00,000.00,028.6,027.2,000.0,036.8,030.3,13.8,0000.0,0005.41,0015.49,0004.77
2023-07-17 22:24:00,SystemResetWarning,0830.6,4.98,000.00,028.6,026.3,000.0,036.8,030.2,14.1,0000.0,0005.29,0014.45,0004.67
2023-07-17 22:25:00,SystemResetWarning,0830.5,5.01,000.00,028.6,024.9,000.0,036.7,030.0,14.8,0000.0,0005.19,0014.55,0004.58
2023-07-17 22:26:00,SystemResetWarning,0830.6,5.01,000.00,028.5,024.9,000.0,036.7,030.0,14.6,0000.0,0005.10,0015.04,0004.48
2023-07-17 22:27:00,SystemResetWarning,0830.4,5.00,000.00,028.5,025.3,000.0,036.7,029.9,15.0,0000.0,0005.00,0016.78,0004.38
2023-07-17 22:28:00,SystemResetWarning,0830.4,5.00,000.00,028.4,025.7,000.0,036.7,029.9,13.8,0000.0,0004.92,0016.72,0004.30
2023-07-17 22:29:00,SystemResetWarning,0830.6,5.00,000.00,028.5,026.2,000.0,036.8,030.1,14.1,0000.0,0004.84,0016.51,0004.25
2023-07-17 22:30:00,SystemResetWarning,0830.7,5.00,000.00,028.5,026.6,000.0,036.8,030.2,15.5,0000.0,0004.72,0015.95,0004.15
2023-07-17 22:31:00,SystemResetWarning,0830.5,5.00,000.00,028.6,027.0,000.0,036.8,030.3,15.1,0000.0,0004.63,0016.05,0004.03
2023-07-17 22:32:00,SystemResetWarning,0830.5,5.00,000.00,028.6,027.3,000.0,036.8,030.4,14.7,0000.0,0004.51,0015.14,0003.90
2023-07-17 22:33:00,SystemResetWarning,0830.7,4.98,000.00,028.7,027.3,000.0,036.9,030.4,14.9,0000.0,0004.38,0013.57,0003.75
2023-07-17 22:34:00,SystemResetWarning,0830.4,4.99,000.00,028.7,025.8,000.0,036.8,030.2,14.5,0000.0,0004.24,0013.29,0003.66
2023-07-17 22:35:00,SystemResetWarning,0830.3,5.02,000.00,028.6,025.0,000.0,036.7,030.1,14.1,0000.0,0004.17,0012.59,0003.61
2023-07-17 22:36:00,SystemResetWarning,0830.4,5.00,000.00,028.6,025.4,000.0,036.7,030.0,15.0,0000.0,0004.10,0011.53,0003.58
2023-07-17 22:37:00,SystemResetWarning,0830.4,4.99,000.00,028.5,025.8,000.0,036.7,030.0,15.2,0000.0,0004.02,0010.76,0003.54
2023-07-17 22:38:00,SystemResetWarning,0830.4,5.00,000.00,028.6,026.2,000.0,036.8,030.1,15.3,0000.0,0003.98,0008.72,0003.52
2023-07-17 22:39:00,SystemResetWarning,0830.4,5.01,000.00,028.6,026.6,000.0,036.8,030.2,14.8,0000.0,0003.93,0008.52,0003.47
2023-07-17 22:40:00,SystemResetWarning,0830.4,5.00,000.00,028.6,027.0,000.0,036.9,030.3,14.8,0000.0,0003.85,0008.16,0003.39
2023-07-17 22:41:00,SystemResetWarning,0830.4,4.99,000.00,028.7,027.3,000.0,036.9,030.5,14.2,0000.0,0003.81,0008.01,0003.37
2023-07-17 22:42:00,SystemResetWarning,0830.4,4.98,000.00,028.7,026.7,000.0,036.8,030.4,15.3,0000.0,0003.76,0007.74,0003.37
2023-07-17 22:43:00,SystemResetWarning,0830.3,5.01,000.00,028.7,025.2,000.0,036.8,030.1,15.3,0000.0,0003.74,0008.08,0003.36
2023-07-17 22:44:00,SystemResetWarning,0830.3,5.01,000.00,028.6,025.1,000.0,036.7,030.1,15.4,0000.0,0003.70,0008.77,0003.36
2023-07-17 22:45:00,SystemResetWarning,0830.3,5.00,000.00,028.6,025.5,000.0,036.7,030.0,15.2,0000.0,0003.69,0008.53,0003.35
2023-07-17 22:46:00,SystemResetWarning,0830.3,5.00,000.00,028.6,025.9,000.0,036.8,030.0,15.5,0000.0,0003.70,0008.55,0003.35
2023-07-17 22:47:00,SystemResetWarning,0830.4,4.99,000.00,028.6,026.3,000.0,036.8,030.1,15.5,0000.0,0003.71,0008.34,0003.36
2023-07-17 22:48:00,SystemResetWarning,0830.4,5.00,000.00,028.6,026.7,000.0,036.8,030.3,15.5,0000.0,0003.71,0008.33,0003.36
2023-07-17 22:49:00,SystemResetWarning,0830.4,5.01,000.00,028.7,027.1,000.0,036.9,030.4,15.9,0000.0,0003.68,0008.18,0003.34
2023-07-17 22:50:00,SystemResetWarning,0830.4,4.99,000.00,028.7,027.2,000.0,036.9,030.4,16.6,0000.0,0003.66,0008.07,0003.33
2023-07-17 22:51:00,SystemResetWarning,0830.4,4.98,000.00,028.7,025.9,000.0,036.8,030.2,16.3,0000.0,0003.69,0008.10,0003.34
2023-07-17 22:52:00,SystemResetWarning,0830.4,5.02,000.00,028.6,024.9,000.0,036.7,030.0,16.7,0000.0,0003.70,0008.38,0003.36
2023-07-17 22:53:00,SystemResetWarning,0830.3,5.00,000.00,028.6,025.2,000.0,036.7,030.0,17.0,0000.0,0003.71,0008.75,0003.36
2023-07-17 22:54:00,SystemResetWarning,0830.4,5.00,000.00,028.5,025.6,000.0,036.8,030.0,16.4,0000.0,0003.72,0008.62,0003.37
2023-07-17 22:55:00,SystemResetWarning,0830.4,4.99,000.00,028.6,026.1,000.0,036.8,030.1,16.0,0000.0,0003.74,0007.87,0003.39
2023-07-17 22:56:00,SystemResetWarning,0830.4,5.00,000.00,028.6,026.5,000.0,036.8,030.2,16.4,0000.0,0003.74,0007.64,0003.40
2023-07-17 22:57:00,SystemResetWarning,0830.4,5.01,000.00,028.6,026.9,000.0,036.9,030.3,17.0,0000.0,0003.74,0007.54,0003.41
2023-07-17 22:58:00,SystemResetWarning,0830.4,5.00,000.00,028.7,027.3,000.0,036.9,030.4,17.2,0000.0,0003.72,0008.34,0003.40
2023-07-17 22:59:00,SystemResetWarning,0830.5,4.98,000.00,028.7,026.7,000.0,036.9,030.4,17.9,0000.0,0003.70,0008.70,0003.38
